7 * 24
多渠道服务支持
STARLINK-34187是美国SpaceX公司于2025年5月13日发射的星链(Starlink)低轨宽带通信卫星,属于全球规模最大卫星互联网星座的组网卫星。星链星座旨在为全球提供覆盖偏远地区的高速宽带互联网服务,该卫星采用平板设计,搭载氪工质霍尔推进器,具备自主避撞能力,服役寿命约5-7年,退役后将主动离轨坠入大气层烧毁,减少太空垃圾。作为SpaceX批量生产的新一代低轨卫星,它进一步扩充了星链在轨卫星规模,提升星座通信覆盖容量与服务稳定性。
美国
(US)
| 数据来源 | 国际轨道数据 |
| 星历时间: | 2026-04-28T23:31:22+0800 1天前 查看轨道信息 |
| 半长轴: | 6861.198km |
| 偏心率: | 0.000217 |
| 轨道倾角: | 43.004° |
| 近地点辐角 | 276.952° |
| 升交点赤经 | 254.351° |
| 平近点角 | 83.108° |
| 近地点: | 481.572km |
| 远地点: | 484.55km |
| 周期: | 94.267分钟 |
| 每日圈数: | 15.275763 |